Weather History for Pontiac, MI

Change the Weather History Date:

Saturday, November 20, 2010

  Actual Average Record
Temperature  
Mean Temperature 37 °F -  
Max Temperature 42 °F 43 °F 57 °F (2004)
Min Temperature 32 °F 30 °F 12 °F (2014)
Degree Days  
Heating Degree Days 28    
Moisture  
Dew Point 30 °F    
Average Humidity 71    
Maximum Humidity 89    
Minimum Humidity 53    
Precipitation  
Precipitation 0.00 in - - ()
Sea Level Pressure  
Sea Level Pressure 30.20 in    
Wind  
Wind Speed 10 mph (NW)    
Max Wind Speed 14 mph    
Max Gust Speed -    
Visibility 9 miles    
Events      
Averages and records for this station are not official NWS values.
T = Trace of Precipitation, MM = Missing Value Source: NWS Daily Summary

Daily Weather History Graph

Daily Weather History Graph

Search for Another Location

Airport:

Trip Planner

Search our weather history database for the weather conditions in past years. The results will help you decide how hot, cold, wet, or windy it might be!

Date:

Astronomy

Nov. 20, 2010 Rise Set
Actual Time 7:31 AM EST 5:06 PM EST
Civil Twilight 7:00 AM EST 5:37 PM EST
Nautical Twilight 6:26 AM EST 6:12 PM EST
Astronomical Twilight 5:52 AM EST 6:45 PM EST
Moon 4:12 PM EST (11/20) 6:30 AM EST (11/20)
Length of Visible Light 10h 37m
Length of Day
9h 35m
Waxing Gibbous, 99% of the Moon is Illuminated
Nov 20
Waxing Gibbous
Nov 21
Full
Nov 28
Last Quarter
Dec 5
New
Dec 13
First Quarter

Hourly Weather History & Observations

Time (EST) Temp. Windchill Dew Point Humidity Pressure Visibility Wind Dir Wind Speed Gust Speed Precip Events Conditions
12:32 AM 42.8 °F 36.6 °F 35.6 °F 76% 30.02 in 8.0 mi West 11.5 mph - N/A   Overcast
12:53 AM 42.1 °F 34.9 °F 35.1 °F 76% 30.05 in 8.0 mi West 13.8 mph - N/A   Overcast
1:14 AM 42.8 °F 35.8 °F 35.6 °F 76% 30.03 in 8.0 mi WSW 13.8 mph - N/A   Overcast
1:53 AM 42.1 °F 37.1 °F 35.1 °F 76% 30.05 in 8.0 mi West 8.1 mph - N/A   Overcast
2:04 AM 42.8 °F 37.0 °F 35.6 °F 76% 30.03 in 8.0 mi West 10.4 mph - N/A   Overcast
2:53 AM 42.1 °F 35.7 °F 35.1 °F 76% 30.07 in 8.0 mi West 11.5 mph - N/A   Overcast
3:31 AM 41.0 °F 34.7 °F 35.6 °F 81% 30.06 in 8.0 mi West 10.4 mph - N/A   Scattered Clouds
3:53 AM 39.9 °F 33.4 °F 35.1 °F 83% 30.08 in 7.0 mi West 10.4 mph - N/A   Scattered Clouds
4:53 AM 39.0 °F 33.4 °F 34.0 °F 82% 30.12 in 7.0 mi West 8.1 mph - N/A   Scattered Clouds
5:53 AM 37.9 °F 30.9 °F 32.0 °F 79% 30.13 in 9.0 mi WNW 10.4 mph - N/A   Partly Cloudy
6:53 AM 35.1 °F 29.3 °F 30.9 °F 85% 30.16 in 8.0 mi WNW 6.9 mph - N/A   Partly Cloudy
7:53 AM 35.1 °F 30.1 °F 32.0 °F 89% 30.19 in 6.0 mi West 5.8 mph - N/A   Scattered Clouds
8:53 AM 37.0 °F 31.0 °F 30.9 °F 79% 30.22 in 9.0 mi WNW 8.1 mph - N/A   Mostly Cloudy
9:53 AM 39.9 °F 32.9 °F 30.0 °F 68% 30.24 in 10.0 mi NW 11.5 mph - N/A   Mostly Cloudy
10:53 AM 39.9 °F 33.4 °F 30.0 °F 68% 30.26 in 10.0 mi NNW 10.4 mph - N/A   Mostly Cloudy
11:53 AM 41.0 °F 35.8 °F 28.9 °F 62% 30.26 in 10.0 mi NNW 8.1 mph - N/A   Mostly Cloudy
12:53 PM 42.1 °F 37.1 °F 27.0 °F 55% 30.25 in 10.0 mi North 8.1 mph - N/A   Mostly Cloudy
1:53 PM 42.1 °F 38.4 °F 28.0 °F 58% 30.26 in 10.0 mi NE 5.8 mph - N/A   Overcast
2:53 PM 42.1 °F 40.2 °F 26.1 °F 53% 30.27 in 10.0 mi NNE 3.5 mph - N/A   Overcast
3:53 PM 41.0 °F 37.1 °F 25.0 °F 53% 30.30 in 10.0 mi NNW 5.8 mph - N/A   Overcast
4:53 PM 39.0 °F 33.4 °F 25.0 °F 57% 30.31 in 10.0 mi NNE 8.1 mph - N/A   Overcast
5:53 PM 36.0 °F 32.1 °F 24.1 °F 62% 30.32 in 10.0 mi NE 4.6 mph - N/A   Mostly Cloudy
6:53 PM 35.1 °F 29.3 °F 21.9 °F 59% 30.34 in 10.0 mi NE 6.9 mph - N/A   Scattered Clouds
7:53 PM 32.0 °F 27.5 °F 23.0 °F 69% 30.35 in 10.0 mi East 4.6 mph - N/A   Scattered Clouds
8:53 PM 32.0 °F 25.6 °F 24.1 °F 73% 30.34 in 10.0 mi East 6.9 mph - N/A   Scattered Clouds
9:53 PM 32.0 °F 27.5 °F 24.8 °F 75% 30.31 in 10.0 mi East 4.6 mph - N/A   Mostly Cloudy
10:53 PM 32.0 °F 26.4 °F 24.1 °F 73% 30.36 in 10.0 mi East 5.8 mph - N/A   Overcast
11:53 PM 33.1 °F 26.9 °F 26.1 °F 75% 30.34 in 10.0 mi ESE 6.9 mph - N/A   Overcast